Weather History for Fayetteville, AR

Change the Weather History Date:

Tuesday, October 14, 2014

  Actual Average Record
Temperature  
Mean Temperature 58 °F 58 °F  
Max Temperature 65 °F 71 °F 90 °F (1963)
Min Temperature 51 °F 46 °F 27 °F (2002)
Degree Days  
Heating Degree Days 7 7  
Month to date heating degree days 63 84  
Since 1 July heating degree days 93 136  
Cooling Degree Days 0 1  
Month to date cooling degree days 34 17  
Year to date cooling degree days 1229 1300  
Growing Degree Days 8 (Base 50)    
Moisture  
Dew Point 44 °F    
Average Humidity 68    
Maximum Humidity 96    
Minimum Humidity 40    
Precipitation  
Precipitation 0.01 in 0.14 in 1.05 in (2003)
Month to date precipitation 6.83 2.00  
Year to date precipitation 33.54 38.71  
Sea Level Pressure  
Sea Level Pressure 29.84 in    
Wind  
Wind Speed 13 mph (WNW)    
Max Wind Speed 25 mph    
Max Gust Speed 35 mph    
Visibility 10 miles    
Events Rain    
T = Trace of Precipitation, MM = Missing Value Source: NWS Daily Summary

Daily Weather History Graph

Daily Weather History Graph

Search for Another Location

Airport:

Trip Planner

Search our weather history database for the weather conditions in past years. The results will help you decide how hot, cold, wet, or windy it might be!

Date:

Astronomy

Oct. 14, 2014 Rise Set
Actual Time 7:22 AM CDT 6:42 PM CDT
Civil Twilight 6:56 AM CDT 7:07 PM CDT
Nautical Twilight 6:27 AM CDT 7:37 PM CDT
Astronomical Twilight 5:57 AM CDT 8:07 PM CDT
Moon 11:53 PM CDT (10/14) 1:18 PM CDT (10/14)
Length of Visible Light 12h 11m
Length of Day
11h 19m
Waning Gibbous, 61% of the Moon is Illuminated
Oct 14
Waning Gibbous
Oct 15
Last Quarter
Oct 23
New
Oct 30
First Quarter
Nov 6
Full

Hourly Weather History & Observations

Time (CDT) Temp. Dew Point Humidity Pressure Visibility Wind Dir Wind Speed Gust Speed Precip Events Conditions
12:32 AM 52.0 °F 50.0 °F 93% 29.73 in 10.0 mi WNW 10.4 mph 20.7 mph N/A   Overcast
12:53 AM 52.0 °F 50.0 °F 93% 29.72 in 10.0 mi WNW 12.7 mph 20.7 mph N/A   Overcast
1:04 AM 51.8 °F 50.0 °F 94% 29.73 in 10.0 mi WNW 9.2 mph - N/A   Overcast
1:53 AM 52.0 °F 48.9 °F 89% 29.72 in 10.0 mi West 9.2 mph - N/A   Overcast
2:53 AM 52.0 °F 48.0 °F 86% 29.72 in 10.0 mi West 10.4 mph - N/A   Overcast
3:53 AM 51.8 °F 46.4 °F 82% 29.73 in 10.0 mi West 10.4 mph - N/A   Overcast
4:53 AM 53.1 °F 45.0 °F 74% 29.73 in 10.0 mi West 13.8 mph 21.9 mph N/A   Overcast
5:53 AM 51.1 °F 46.9 °F 86% 29.77 in 10.0 mi WNW 10.4 mph 20.7 mph 0.00 in Rain Light Rain
6:53 AM 51.1 °F 46.0 °F 83% 29.78 in 10.0 mi West 13.8 mph 21.9 mph 0.01 in   Overcast
7:53 AM 51.1 °F 45.0 °F 80% 29.81 in 10.0 mi West 11.5 mph - N/A   Overcast
8:53 AM 53.1 °F 44.1 °F 71% 29.82 in 10.0 mi WNW 17.3 mph 26.5 mph N/A   Mostly Cloudy
9:53 AM 53.6 °F 44.6 °F 72% 29.85 in 10.0 mi WNW 13.8 mph 25.3 mph N/A   Clear
10:53 AM 57.0 °F 46.0 °F 67% 29.85 in 10.0 mi NW 13.8 mph 27.6 mph N/A   Clear
11:53 AM 60.1 °F 46.0 °F 60% 29.85 in 10.0 mi WNW 21.9 mph 27.6 mph N/A   Clear
12:53 PM 63.0 °F 46.0 °F 54% 29.85 in 10.0 mi WNW 21.9 mph 33.4 mph N/A   Partly Cloudy
1:53 PM 64.0 °F 44.1 °F 48% 29.86 in 10.0 mi NW 19.6 mph 32.2 mph N/A   Partly Cloudy
2:53 PM 64.9 °F 42.1 °F 43% 29.86 in 10.0 mi NW 15.0 mph 27.6 mph N/A   Clear
3:53 PM 64.0 °F 39.9 °F 41% 29.87 in 10.0 mi WNW 21.9 mph 31.1 mph 0.00 in   Clear
4:53 PM 64.0 °F 39.9 °F 41% 29.88 in 10.0 mi WNW 20.7 mph 28.8 mph N/A   Clear
5:53 PM 62.1 °F 39.0 °F 43% 29.90 in 10.0 mi NW 15.0 mph 23.0 mph N/A   Clear
6:53 PM 59.0 °F 39.9 °F 49% 29.92 in 10.0 mi NW 9.2 mph - N/A   Clear
7:53 PM 57.2 °F 39.2 °F 51% 29.94 in 10.0 mi WNW 8.1 mph - N/A   Clear
8:53 PM 57.0 °F 39.9 °F 53% 29.95 in 10.0 mi West 9.2 mph - N/A   Clear
9:53 PM 55.0 °F 39.9 °F 57% 29.97 in 10.0 mi WNW 9.2 mph - N/A   Clear
10:53 PM 54.0 °F 39.9 °F 59% 29.97 in 10.0 mi WNW 9.2 mph - N/A   Clear
11:53 PM 53.1 °F 41.0 °F 64% 29.97 in 10.0 mi NW 6.9 mph - N/A   Clear